Torna al catalogo

FENGYUN 1C DEB

AttivoPO
NORAD 32099·DEBRIS·🇨🇳 China

Lanciato May 10, 1999 da Taiyuan Satellite Launch Center

Loading…

Prossimi Passaggi (prossime 24 ore)

TLE

ObsoletoSource: Space-Track

Epoca: Aug 23, 2026, 15:46 UTC

1 32099U 99025CQR 26235.65703752  .00001341  00000-0  66253-3 0  9995
2 32099  98.2992 186.4978 0339283 286.2186 253.7333 13.93004008682211

Traccia FENGYUN 1C DEB in tempo reale con AllMySat

Download on the App Store